Year,Month,Day,Hour,Minute,Value (Times are PST for insolation in W/m^2)
2021,02,25,00,00,0.00
2021,02,25,00,01,0.00
2021,02,25,00,02,0.00
2021,02,25,00,03,0.00
2021,02,25,00,04,0.00
2021,02,25,00,05,0.00
2021,02,25,00,06,0.00
2021,02,25,00,07,0.00
2021,02,25,00,08,0.00
2021,02,25,00,09,0.00
2021,02,25,00,10,0.00
2021,02,25,00,11,0.00
2021,02,25,00,12,0.00
2021,02,25,00,13,0.00
2021,02,25,00,14,0.00
2021,02,25,00,15,0.00
2021,02,25,00,16,0.00
2021,02,25,00,17,0.00
2021,02,25,00,18,0.00
2021,02,25,00,19,0.00
2021,02,25,00,20,0.00
2021,02,25,00,21,0.00
2021,02,25,00,22,0.00
2021,02,25,00,23,0.00
2021,02,25,00,24,0.00
2021,02,25,00,25,0.00
2021,02,25,00,26,0.00
2021,02,25,00,27,0.00
2021,02,25,00,28,0.00
2021,02,25,00,29,0.00
2021,02,25,00,30,0.00
2021,02,25,00,31,0.00
2021,02,25,00,32,0.00
2021,02,25,00,33,0.00
2021,02,25,00,34,0.00
2021,02,25,00,35,0.00
2021,02,25,00,36,0.00
2021,02,25,00,37,0.00
2021,02,25,00,38,0.00
2021,02,25,00,39,0.00
2021,02,25,00,40,0.00
2021,02,25,00,41,0.00
2021,02,25,00,42,0.00
2021,02,25,00,43,0.00
2021,02,25,00,44,0.00
2021,02,25,00,45,0.00
2021,02,25,00,46,0.00
2021,02,25,00,47,0.00
2021,02,25,00,48,0.00
2021,02,25,00,49,0.00
2021,02,25,00,50,0.00
2021,02,25,00,51,0.00
2021,02,25,00,52,0.00
2021,02,25,00,53,0.00
2021,02,25,00,54,0.00
2021,02,25,00,55,0.00
2021,02,25,00,56,0.00
2021,02,25,00,57,0.00
2021,02,25,00,58,0.00
2021,02,25,00,59,0.00
2021,02,25,01,00,0.00
2021,02,25,01,01,0.00
2021,02,25,01,02,0.00
2021,02,25,01,03,0.00
2021,02,25,01,04,0.00
2021,02,25,01,05,0.00
2021,02,25,01,06,0.00
2021,02,25,01,07,0.00
2021,02,25,01,08,0.00
2021,02,25,01,09,0.00
2021,02,25,01,10,0.00
2021,02,25,01,11,0.00
2021,02,25,01,12,0.00
2021,02,25,01,13,0.00
2021,02,25,01,14,0.00
2021,02,25,01,15,0.00
2021,02,25,01,16,0.00
2021,02,25,01,17,0.00
2021,02,25,01,18,0.00
2021,02,25,01,19,0.00
2021,02,25,01,20,0.00
2021,02,25,01,21,0.00
2021,02,25,01,22,0.00
2021,02,25,01,23,0.00
2021,02,25,01,24,0.00
2021,02,25,01,25,0.00
2021,02,25,01,26,0.00
2021,02,25,01,27,0.00
2021,02,25,01,28,0.00
2021,02,25,01,29,0.00
2021,02,25,01,30,0.00
2021,02,25,01,31,0.00
2021,02,25,01,32,0.00
2021,02,25,01,33,0.00
2021,02,25,01,34,0.00
2021,02,25,01,35,0.00
2021,02,25,01,36,0.00
2021,02,25,01,37,0.00
2021,02,25,01,38,0.00
2021,02,25,01,39,0.00
2021,02,25,01,40,0.00
2021,02,25,01,41,0.00
2021,02,25,01,42,0.00
2021,02,25,01,43,0.00
2021,02,25,01,44,0.00
2021,02,25,01,45,0.00
2021,02,25,01,46,0.00
2021,02,25,01,47,0.00
2021,02,25,01,48,0.00
2021,02,25,01,49,0.00
2021,02,25,01,50,0.00
2021,02,25,01,51,0.00
2021,02,25,01,52,0.00
2021,02,25,01,53,0.00
2021,02,25,01,54,0.00
2021,02,25,01,55,0.00
2021,02,25,01,56,0.00
2021,02,25,01,57,0.00
2021,02,25,01,58,0.00
2021,02,25,01,59,0.00
2021,02,25,02,00,0.00
2021,02,25,02,01,0.00
2021,02,25,02,02,0.00
2021,02,25,02,03,0.00
2021,02,25,02,04,0.00
2021,02,25,02,05,0.00
2021,02,25,02,06,0.00
2021,02,25,02,07,0.00
2021,02,25,02,08,0.00
2021,02,25,02,09,0.00
2021,02,25,02,10,0.00
2021,02,25,02,11,0.00
2021,02,25,02,12,0.00
2021,02,25,02,13,0.00
2021,02,25,02,14,0.00
2021,02,25,02,15,0.00
2021,02,25,02,16,0.00
2021,02,25,02,17,0.00
2021,02,25,02,18,0.00
2021,02,25,02,19,0.00
2021,02,25,02,20,0.00
2021,02,25,02,21,0.00
2021,02,25,02,22,0.00
2021,02,25,02,23,0.00
2021,02,25,02,24,0.00
2021,02,25,02,25,0.00
2021,02,25,02,26,0.00
2021,02,25,02,27,0.00
2021,02,25,02,28,0.00
2021,02,25,02,29,0.00
2021,02,25,02,30,0.00
2021,02,25,02,31,0.00
2021,02,25,02,32,0.00
2021,02,25,02,33,0.00
2021,02,25,02,34,0.00
2021,02,25,02,35,0.00
2021,02,25,02,36,0.00
2021,02,25,02,37,0.00
2021,02,25,02,38,0.00
2021,02,25,02,39,0.00
2021,02,25,02,40,0.00
2021,02,25,02,41,0.00
2021,02,25,02,42,0.00
2021,02,25,02,43,0.00
2021,02,25,02,44,0.00
2021,02,25,02,45,0.00
2021,02,25,02,46,0.00
2021,02,25,02,47,0.00
2021,02,25,02,48,0.00
2021,02,25,02,49,0.00
2021,02,25,02,50,0.00
2021,02,25,02,51,0.00
2021,02,25,02,52,0.00
2021,02,25,02,53,0.00
2021,02,25,02,54,0.00
2021,02,25,02,55,0.00
2021,02,25,02,56,0.00
2021,02,25,02,57,0.00
2021,02,25,02,58,0.00
2021,02,25,02,59,0.00
2021,02,25,03,00,0.00
2021,02,25,03,01,0.00
2021,02,25,03,02,0.00
2021,02,25,03,03,0.00
2021,02,25,03,04,0.00
2021,02,25,03,05,0.00
2021,02,25,03,06,0.00
2021,02,25,03,07,0.00
2021,02,25,03,08,0.00
2021,02,25,03,09,0.00
2021,02,25,03,10,0.00
2021,02,25,03,11,0.00
2021,02,25,03,12,0.00
2021,02,25,03,13,0.00
2021,02,25,03,14,0.00
2021,02,25,03,15,0.00
2021,02,25,03,16,0.00
2021,02,25,03,17,0.00
2021,02,25,03,18,0.00
2021,02,25,03,19,0.00
2021,02,25,03,20,0.00
2021,02,25,03,21,0.00
2021,02,25,03,22,0.00
2021,02,25,03,23,0.00
2021,02,25,03,24,0.00
2021,02,25,03,25,0.00
2021,02,25,03,26,0.00
2021,02,25,03,27,0.00
2021,02,25,03,28,0.00
2021,02,25,03,29,0.00
2021,02,25,03,30,0.00
2021,02,25,03,31,0.00
2021,02,25,03,32,0.00
2021,02,25,03,33,0.00
2021,02,25,03,34,0.00
2021,02,25,03,35,0.00
2021,02,25,03,36,0.00
2021,02,25,03,37,0.00
2021,02,25,03,38,0.00
2021,02,25,03,39,0.00
2021,02,25,03,40,0.00
2021,02,25,03,41,0.00
2021,02,25,03,42,0.00
2021,02,25,03,43,0.00
2021,02,25,03,44,0.00
2021,02,25,03,45,0.00
2021,02,25,03,46,0.00
2021,02,25,03,47,0.00
2021,02,25,03,48,0.00
2021,02,25,03,49,0.00
2021,02,25,03,50,0.00
2021,02,25,03,51,0.00
2021,02,25,03,52,0.00
2021,02,25,03,53,0.00
2021,02,25,03,54,0.00
2021,02,25,03,55,0.00
2021,02,25,03,56,0.00
2021,02,25,03,57,0.00
2021,02,25,03,58,0.00
2021,02,25,03,59,0.00
2021,02,25,04,00,0.00
2021,02,25,04,01,0.00
2021,02,25,04,02,0.00
2021,02,25,04,03,0.00
2021,02,25,04,04,0.00
2021,02,25,04,05,0.00
2021,02,25,04,06,0.00
2021,02,25,04,07,0.00
2021,02,25,04,08,0.00
2021,02,25,04,09,0.00
2021,02,25,04,10,0.00
2021,02,25,04,11,0.00
2021,02,25,04,12,0.00
2021,02,25,04,13,0.00
2021,02,25,04,14,0.00
2021,02,25,04,15,0.00
2021,02,25,04,16,0.00
2021,02,25,04,17,0.00
2021,02,25,04,18,0.00
2021,02,25,04,19,0.00
2021,02,25,04,20,0.00
2021,02,25,04,21,0.00
2021,02,25,04,22,0.00
2021,02,25,04,23,0.00
2021,02,25,04,24,0.00
2021,02,25,04,25,0.00
2021,02,25,04,26,0.00
2021,02,25,04,27,0.00
2021,02,25,04,28,0.00
2021,02,25,04,29,0.00
2021,02,25,04,30,0.00
2021,02,25,04,31,0.00
2021,02,25,04,32,0.00
2021,02,25,04,33,0.00
2021,02,25,04,34,0.00
2021,02,25,04,35,0.00
2021,02,25,04,36,0.00
2021,02,25,04,37,0.00
2021,02,25,04,38,0.00
2021,02,25,04,39,0.00
2021,02,25,04,40,0.00
2021,02,25,04,41,0.00
2021,02,25,04,42,0.00
2021,02,25,04,43,0.00
2021,02,25,04,44,0.00
2021,02,25,04,45,0.00
2021,02,25,04,46,0.00
2021,02,25,04,47,0.00
2021,02,25,04,48,0.00
2021,02,25,04,49,0.00
2021,02,25,04,50,0.00
2021,02,25,04,51,0.00
2021,02,25,04,52,0.00
2021,02,25,04,53,0.00
2021,02,25,04,54,0.00
2021,02,25,04,55,0.00
2021,02,25,04,56,0.00
2021,02,25,04,57,0.00
2021,02,25,04,58,0.00
2021,02,25,04,59,0.00
2021,02,25,05,00,0.00
2021,02,25,05,01,0.00
2021,02,25,05,02,0.00
2021,02,25,05,03,0.00
2021,02,25,05,04,0.00
2021,02,25,05,05,0.00
2021,02,25,05,06,0.00
2021,02,25,05,07,0.00
2021,02,25,05,08,0.00
2021,02,25,05,09,0.00
2021,02,25,05,10,0.00
2021,02,25,05,11,0.00
2021,02,25,05,12,0.00
2021,02,25,05,13,0.00
2021,02,25,05,14,0.00
2021,02,25,05,15,0.00
2021,02,25,05,16,0.00
2021,02,25,05,17,0.00
2021,02,25,05,18,0.00
2021,02,25,05,19,0.00
2021,02,25,05,20,0.00
2021,02,25,05,21,0.00
2021,02,25,05,22,0.00
2021,02,25,05,23,0.00
2021,02,25,05,24,0.00
2021,02,25,05,25,0.00
2021,02,25,05,26,0.00
2021,02,25,05,27,0.00
2021,02,25,05,28,0.00
2021,02,25,05,29,0.00
2021,02,25,05,30,0.00
2021,02,25,05,31,0.00
2021,02,25,05,32,0.00
2021,02,25,05,33,0.00
2021,02,25,05,34,0.00
2021,02,25,05,35,0.00
2021,02,25,05,36,0.00
2021,02,25,05,37,0.00
2021,02,25,05,38,0.00
2021,02,25,05,39,0.00
2021,02,25,05,40,0.00
2021,02,25,05,41,0.00
2021,02,25,05,42,0.00
2021,02,25,05,43,0.00
2021,02,25,05,44,0.00
2021,02,25,05,45,0.00
2021,02,25,05,46,0.00
2021,02,25,05,47,0.00
2021,02,25,05,48,0.00
2021,02,25,05,49,0.00
2021,02,25,05,50,0.00
2021,02,25,05,51,0.00
2021,02,25,05,52,0.00
2021,02,25,05,53,0.00
2021,02,25,05,54,0.00
2021,02,25,05,55,0.00
2021,02,25,05,56,0.00
2021,02,25,05,57,0.00
2021,02,25,05,58,0.00
2021,02,25,05,59,0.00
2021,02,25,06,00,0.00
2021,02,25,06,01,0.00
2021,02,25,06,02,0.00
2021,02,25,06,03,0.00
2021,02,25,06,04,0.00
2021,02,25,06,05,0.00
2021,02,25,06,06,0.00
2021,02,25,06,07,0.00
2021,02,25,06,08,0.00
2021,02,25,06,09,0.00
2021,02,25,06,10,0.00
2021,02,25,06,11,0.00
2021,02,25,06,12,0.00
2021,02,25,06,13,0.00
2021,02,25,06,14,0.00
2021,02,25,06,15,0.00
2021,02,25,06,16,0.00
2021,02,25,06,17,0.00
2021,02,25,06,18,0.00
2021,02,25,06,19,0.00
2021,02,25,06,20,0.00
2021,02,25,06,21,0.00
2021,02,25,06,22,0.00
2021,02,25,06,23,0.00
2021,02,25,06,24,0.00
2021,02,25,06,25,0.00
2021,02,25,06,26,0.00
2021,02,25,06,27,0.00
2021,02,25,06,28,0.00
2021,02,25,06,29,0.00
2021,02,25,06,30,0.00
2021,02,25,06,31,0.00
2021,02,25,06,32,0.00
2021,02,25,06,33,0.00
2021,02,25,06,34,0.00
2021,02,25,06,35,0.00
2021,02,25,06,36,0.00
2021,02,25,06,37,0.00
2021,02,25,06,38,0.00
2021,02,25,06,39,0.00
2021,02,25,06,40,0.00
2021,02,25,06,41,0.00
2021,02,25,06,42,0.00
2021,02,25,06,43,0.00
2021,02,25,06,44,0.00
2021,02,25,06,45,0.00
2021,02,25,06,46,0.00
2021,02,25,06,47,0.00
2021,02,25,06,48,0.00
2021,02,25,06,49,0.00
2021,02,25,06,50,0.00
2021,02,25,06,51,0.00
2021,02,25,06,52,0.00
2021,02,25,06,53,0.00
2021,02,25,06,54,0.00
2021,02,25,06,55,0.00
2021,02,25,06,56,0.00
2021,02,25,06,57,0.00
2021,02,25,06,58,0.00
2021,02,25,06,59,0.00
2021,02,25,07,00,0.00
2021,02,25,07,01,0.00
2021,02,25,07,02,0.00
2021,02,25,07,03,0.00
2021,02,25,07,04,0.00
2021,02,25,07,05,0.00
2021,02,25,07,06,0.00
2021,02,25,07,07,0.00
2021,02,25,07,08,0.00
2021,02,25,07,09,0.00
2021,02,25,07,10,0.00
2021,02,25,07,11,0.00
2021,02,25,07,12,2.90
2021,02,25,07,13,5.00
2021,02,25,07,14,5.00
2021,02,25,07,15,5.00
2021,02,25,07,16,5.00
2021,02,25,07,17,5.00
2021,02,25,07,18,5.00
2021,02,25,07,19,5.00
2021,02,25,07,20,5.00
2021,02,25,07,21,6.60
2021,02,25,07,22,7.00
2021,02,25,07,23,7.00
2021,02,25,07,24,7.00
2021,02,25,07,25,7.90
2021,02,25,07,26,9.00
2021,02,25,07,27,9.00
2021,02,25,07,28,9.00
2021,02,25,07,29,9.00
2021,02,25,07,30,9.00
2021,02,25,07,31,9.00
2021,02,25,07,32,9.00
2021,02,25,07,33,10.10
2021,02,25,07,34,11.00
2021,02,25,07,35,11.00
2021,02,25,07,36,11.00
2021,02,25,07,37,11.00
2021,02,25,07,38,11.00
2021,02,25,07,39,11.00
2021,02,25,07,40,11.60
2021,02,25,07,41,12.00
2021,02,25,07,42,12.00
2021,02,25,07,43,12.00
2021,02,25,07,44,12.00
2021,02,25,07,45,12.00
2021,02,25,07,46,12.00
2021,02,25,07,47,12.00
2021,02,25,07,48,12.00
2021,02,25,07,49,12.00
2021,02,25,07,50,12.10
2021,02,25,07,51,14.00
2021,02,25,07,52,14.00
2021,02,25,07,53,14.00
2021,02,25,07,54,14.00
2021,02,25,07,55,14.00
2021,02,25,07,56,14.00
2021,02,25,07,57,15.90
2021,02,25,07,58,16.00
2021,02,25,07,59,16.00
2021,02,25,08,00,16.00
2021,02,25,08,01,16.00
2021,02,25,08,02,16.00
2021,02,25,08,03,16.00
2021,02,25,08,04,16.00
2021,02,25,08,05,16.40
2021,02,25,08,06,18.00
2021,02,25,08,07,19.30
2021,02,25,08,08,22.10
2021,02,25,08,09,24.40
2021,02,25,08,10,25.80
2021,02,25,08,11,31.80
2021,02,25,08,12,36.30
2021,02,25,08,13,43.30
2021,02,25,08,14,46.40
2021,02,25,08,15,47.00
2021,02,25,08,16,46.30
2021,02,25,08,17,46.80
2021,02,25,08,18,49.00
2021,02,25,08,19,51.40
2021,02,25,08,20,53.00
2021,02,25,08,21,52.10
2021,02,25,08,22,48.70
2021,02,25,08,23,45.00
2021,02,25,08,24,42.40
2021,02,25,08,25,42.10
2021,02,25,08,26,44.40
2021,02,25,08,27,46.00
2021,02,25,08,28,47.30
2021,02,25,08,29,49.00
2021,02,25,08,30,51.70
2021,02,25,08,31,53.00
2021,02,25,08,32,53.00
2021,02,25,08,33,53.00
2021,02,25,08,34,53.00
2021,02,25,08,35,53.00
2021,02,25,08,36,53.00
2021,02,25,08,37,53.00
2021,02,25,08,38,51.30
2021,02,25,08,39,47.20
2021,02,25,08,40,45.60
2021,02,25,08,41,42.70
2021,02,25,08,42,39.50
2021,02,25,08,43,37.80
2021,02,25,08,44,37.00
2021,02,25,08,45,37.00
2021,02,25,08,46,37.00
2021,02,25,08,47,37.40
2021,02,25,08,48,39.00
2021,02,25,08,49,37.20
2021,02,25,08,50,35.00
2021,02,25,08,51,35.00
2021,02,25,08,52,36.60
2021,02,25,08,53,37.20
2021,02,25,08,54,40.40
2021,02,25,08,55,42.00
2021,02,25,08,56,42.00
2021,02,25,08,57,42.00
2021,02,25,08,58,42.00
2021,02,25,08,59,42.00
2021,02,25,09,00,43.90
2021,02,25,09,01,44.00
2021,02,25,09,02,44.00
2021,02,25,09,03,44.00
2021,02,25,09,04,44.00
2021,02,25,09,05,46.10
2021,02,25,09,06,48.60
2021,02,25,09,07,54.10
2021,02,25,09,08,60.90
2021,02,25,09,09,66.30
2021,02,25,09,10,70.40
2021,02,25,09,11,74.80
2021,02,25,09,12,81.10
2021,02,25,09,13,79.70
2021,02,25,09,14,77.10
2021,02,25,09,15,76.80
2021,02,25,09,16,76.00
2021,02,25,09,17,75.10
2021,02,25,09,18,71.70
2021,02,25,09,19,69.30
2021,02,25,09,20,73.10
2021,02,25,09,21,79.30
2021,02,25,09,22,88.90
2021,02,25,09,23,94.30
2021,02,25,09,24,97.00
2021,02,25,09,25,97.00
2021,02,25,09,26,97.70
2021,02,25,09,27,98.00
2021,02,25,09,28,95.00
2021,02,25,09,29,93.00
2021,02,25,09,30,93.60
2021,02,25,09,31,95.00
2021,02,25,09,32,95.00
2021,02,25,09,33,96.40
2021,02,25,09,34,92.10
2021,02,25,09,35,92.70
2021,02,25,09,36,90.00
2021,02,25,09,37,89.40
2021,02,25,09,38,88.00
2021,02,25,09,39,89.10
2021,02,25,09,40,95.60
2021,02,25,09,41,101.30
2021,02,25,09,42,100.10
2021,02,25,09,43,101.50
2021,02,25,09,44,113.20
2021,02,25,09,45,137.90
2021,02,25,09,46,173.30
2021,02,25,09,47,216.00
2021,02,25,09,48,265.30
2021,02,25,09,49,269.40
2021,02,25,09,50,248.10
2021,02,25,09,51,158.20
2021,02,25,09,52,170.10
2021,02,25,09,53,178.40
2021,02,25,09,54,181.40
2021,02,25,09,55,198.50
2021,02,25,09,56,229.60
2021,02,25,09,57,214.90
2021,02,25,09,58,176.00
2021,02,25,09,59,216.20
2021,02,25,10,00,227.70
2021,02,25,10,01,171.70
2021,02,25,10,02,140.20
2021,02,25,10,03,143.60
2021,02,25,10,04,147.80
2021,02,25,10,05,188.60
2021,02,25,10,06,191.30
2021,02,25,10,07,169.00
2021,02,25,10,08,154.50
2021,02,25,10,09,150.30
2021,02,25,10,10,153.90
2021,02,25,10,11,145.10
2021,02,25,10,12,140.40
2021,02,25,10,13,142.90
2021,02,25,10,14,142.90
2021,02,25,10,15,129.10
2021,02,25,10,16,120.90
2021,02,25,10,17,121.00
2021,02,25,10,18,123.40
2021,02,25,10,19,125.90
2021,02,25,10,20,126.70
2021,02,25,10,21,125.00
2021,02,25,10,22,128.50
2021,02,25,10,23,135.80
2021,02,25,10,24,148.30
2021,02,25,10,25,141.10
2021,02,25,10,26,138.30
2021,02,25,10,27,136.10
2021,02,25,10,28,124.30
2021,02,25,10,29,118.60
2021,02,25,10,30,154.10
2021,02,25,10,31,132.80
2021,02,25,10,32,124.20
2021,02,25,10,33,149.30
2021,02,25,10,34,195.90
2021,02,25,10,35,212.60
2021,02,25,10,36,269.10
2021,02,25,10,37,295.80
2021,02,25,10,38,328.00
2021,02,25,10,39,385.00
2021,02,25,10,40,398.10
2021,02,25,10,41,388.30
2021,02,25,10,42,336.90
2021,02,25,10,43,332.10
2021,02,25,10,44,342.10
2021,02,25,10,45,327.80
2021,02,25,10,46,384.90
2021,02,25,10,47,415.00
2021,02,25,10,48,415.90
2021,02,25,10,49,422.10
2021,02,25,10,50,441.50
2021,02,25,10,51,444.60
2021,02,25,10,52,439.50
2021,02,25,10,53,443.50
2021,02,25,10,54,445.70
2021,02,25,10,55,443.10
2021,02,25,10,56,446.00
2021,02,25,10,57,450.00
2021,02,25,10,58,451.60
2021,02,25,10,59,457.20
2021,02,25,11,00,463.30
2021,02,25,11,01,469.00
2021,02,25,11,02,481.40
2021,02,25,11,03,507.30
2021,02,25,11,04,528.60
2021,02,25,11,05,533.20
2021,02,25,11,06,589.80
2021,02,25,11,07,531.10
2021,02,25,11,08,259.30
2021,02,25,11,09,263.60
2021,02,25,11,10,287.40
2021,02,25,11,11,323.00
2021,02,25,11,12,323.00
2021,02,25,11,13,312.30
2021,02,25,11,14,311.10
2021,02,25,11,15,351.90
2021,02,25,11,16,273.10
2021,02,25,11,17,213.20
2021,02,25,11,18,198.80
2021,02,25,11,19,193.00
2021,02,25,11,20,209.40
2021,02,25,11,21,644.20
2021,02,25,11,22,682.00
2021,02,25,11,23,682.00
2021,02,25,11,24,464.30
2021,02,25,11,25,241.20
2021,02,25,11,26,226.70
2021,02,25,11,27,323.40
2021,02,25,11,28,298.10
2021,02,25,11,29,162.00
2021,02,25,11,30,155.00
2021,02,25,11,31,146.10
2021,02,25,11,32,124.80
2021,02,25,11,33,126.20
2021,02,25,11,34,134.70
2021,02,25,11,35,135.00
2021,02,25,11,36,125.00
2021,02,25,11,37,103.70
2021,02,25,11,38,102.00
2021,02,25,11,39,115.40
2021,02,25,11,40,132.50
2021,02,25,11,41,135.00
2021,02,25,11,42,144.80
2021,02,25,11,43,181.10
2021,02,25,11,44,165.10
2021,02,25,11,45,185.90
2021,02,25,11,46,192.20
2021,02,25,11,47,244.60
2021,02,25,11,48,257.00
2021,02,25,11,49,257.00
2021,02,25,11,50,366.90
2021,02,25,11,51,599.00
2021,02,25,11,52,599.00
2021,02,25,11,53,599.00
2021,02,25,11,54,704.10
2021,02,25,11,55,719.40
2021,02,25,11,56,715.70
2021,02,25,11,57,722.90
2021,02,25,11,58,735.00
2021,02,25,11,59,732.00
2021,02,25,12,00,726.00
2021,02,25,12,01,717.00
2021,02,25,12,02,701.10
2021,02,25,12,03,701.60
2021,02,25,12,04,679.70
2021,02,25,12,05,686.00
2021,02,25,12,06,518.80
2021,02,25,12,07,385.00
2021,02,25,12,08,262.60
2021,02,25,12,09,237.30
2021,02,25,12,10,271.00
2021,02,25,12,11,321.80
2021,02,25,12,12,429.00
2021,02,25,12,13,429.00
2021,02,25,12,14,282.60
2021,02,25,12,15,199.60
2021,02,25,12,16,199.40
2021,02,25,12,17,206.90
2021,02,25,12,18,211.60
2021,02,25,12,19,209.00
2021,02,25,12,20,197.10
2021,02,25,12,21,182.10
2021,02,25,12,22,167.80
2021,02,25,12,23,158.50
2021,02,25,12,24,158.40
2021,02,25,12,25,160.60
2021,02,25,12,26,163.30
2021,02,25,12,27,168.40
2021,02,25,12,28,176.60
2021,02,25,12,29,192.10
2021,02,25,12,30,250.70
2021,02,25,12,31,297.60
2021,02,25,12,32,490.80
2021,02,25,12,33,486.60
2021,02,25,12,34,466.00
2021,02,25,12,35,266.00
2021,02,25,12,36,185.20
2021,02,25,12,37,211.90
2021,02,25,12,38,253.40
2021,02,25,12,39,427.00
2021,02,25,12,40,400.00
2021,02,25,12,41,382.30
2021,02,25,12,42,420.10
2021,02,25,12,43,448.10
2021,02,25,12,44,367.90
2021,02,25,12,45,337.20
2021,02,25,12,46,269.60
2021,02,25,12,47,270.00
2021,02,25,12,48,268.00
2021,02,25,12,49,255.20
2021,02,25,12,50,245.70
2021,02,25,12,51,237.40
2021,02,25,12,52,236.60
2021,02,25,12,53,241.20
2021,02,25,12,54,243.90
2021,02,25,12,55,233.90
2021,02,25,12,56,218.10
2021,02,25,12,57,202.40
2021,02,25,12,58,190.20
2021,02,25,12,59,182.10
2021,02,25,13,00,178.00
2021,02,25,13,01,176.00
2021,02,25,13,02,176.00
2021,02,25,13,03,176.00
2021,02,25,13,04,174.40
2021,02,25,13,05,172.00
2021,02,25,13,06,168.60
2021,02,25,13,07,168.60
2021,02,25,13,08,175.20
2021,02,25,13,09,185.10
2021,02,25,13,10,196.80
2021,02,25,13,11,207.30
2021,02,25,13,12,219.90
2021,02,25,13,13,229.90
2021,02,25,13,14,234.60
2021,02,25,13,15,236.40
2021,02,25,13,16,237.00
2021,02,25,13,17,238.40
2021,02,25,13,18,243.10
2021,02,25,13,19,251.00
2021,02,25,13,20,259.10
2021,02,25,13,21,266.20
2021,02,25,13,22,275.60
2021,02,25,13,23,281.00
2021,02,25,13,24,279.60
2021,02,25,13,25,265.00
2021,02,25,13,26,253.20
2021,02,25,13,27,252.20
2021,02,25,13,28,255.40
2021,02,25,13,29,245.10
2021,02,25,13,30,235.00
2021,02,25,13,31,230.60
2021,02,25,13,32,230.00
2021,02,25,13,33,237.40
2021,02,25,13,34,251.40
2021,02,25,13,35,260.70
2021,02,25,13,36,290.60
2021,02,25,13,37,301.40
2021,02,25,13,38,271.40
2021,02,25,13,39,279.80
2021,02,25,13,40,293.10
2021,02,25,13,41,373.20
2021,02,25,13,42,392.60
2021,02,25,13,43,398.80
2021,02,25,13,44,351.30
2021,02,25,13,45,345.30
2021,02,25,13,46,353.00
2021,02,25,13,47,362.90
2021,02,25,13,48,477.40
2021,02,25,13,49,421.00
2021,02,25,13,50,438.00
2021,02,25,13,51,438.00
2021,02,25,13,52,430.30
2021,02,25,13,53,427.00
2021,02,25,13,54,600.20
2021,02,25,13,55,540.00
2021,02,25,13,56,490.80
2021,02,25,13,57,387.00
2021,02,25,13,58,488.10
2021,02,25,13,59,543.60
2021,02,25,14,00,488.40
2021,02,25,14,01,517.00
2021,02,25,14,02,482.60
2021,02,25,14,03,296.50
2021,02,25,14,04,245.90
2021,02,25,14,05,237.90
2021,02,25,14,06,235.00
2021,02,25,14,07,226.60
2021,02,25,14,08,218.10
2021,02,25,14,09,212.30
2021,02,25,14,10,208.40
2021,02,25,14,11,205.70
2021,02,25,14,12,202.90
2021,02,25,14,13,198.60
2021,02,25,14,14,191.30
2021,02,25,14,15,181.10
2021,02,25,14,16,172.50
2021,02,25,14,17,165.30
2021,02,25,14,18,159.00
2021,02,25,14,19,151.10
2021,02,25,14,20,143.90
2021,02,25,14,21,139.60
2021,02,25,14,22,134.20
2021,02,25,14,23,131.60
2021,02,25,14,24,129.30
2021,02,25,14,25,127.50
2021,02,25,14,26,125.90
2021,02,25,14,27,123.70
2021,02,25,14,28,121.40
2021,02,25,14,29,119.90
2021,02,25,14,30,118.00
2021,02,25,14,31,118.60
2021,02,25,14,32,120.40
2021,02,25,14,33,122.10
2021,02,25,14,34,125.80
2021,02,25,14,35,129.50
2021,02,25,14,36,134.00
2021,02,25,14,37,137.90
2021,02,25,14,38,143.90
2021,02,25,14,39,151.10
2021,02,25,14,40,160.70
2021,02,25,14,41,174.90
2021,02,25,14,42,192.10
2021,02,25,14,43,211.40
2021,02,25,14,44,226.60
2021,02,25,14,45,234.90
2021,02,25,14,46,237.90
2021,02,25,14,47,239.00
2021,02,25,14,48,241.70
2021,02,25,14,49,249.60
2021,02,25,14,50,245.80
2021,02,25,14,51,234.80
2021,02,25,14,52,227.20
2021,02,25,14,53,220.00
2021,02,25,14,54,213.20
2021,02,25,14,55,207.60
2021,02,25,14,56,202.70
2021,02,25,14,57,203.60
2021,02,25,14,58,199.00
2021,02,25,14,59,199.30
2021,02,25,15,00,200.90
2021,02,25,15,01,202.00
2021,02,25,15,02,203.40
2021,02,25,15,03,202.40
2021,02,25,15,04,197.00
2021,02,25,15,05,190.90
2021,02,25,15,06,183.80
2021,02,25,15,07,176.80
2021,02,25,15,08,171.10
2021,02,25,15,09,166.20
2021,02,25,15,10,165.00
2021,02,25,15,11,163.10
2021,02,25,15,12,162.00
2021,02,25,15,13,160.70
2021,02,25,15,14,155.00
2021,02,25,15,15,147.00
2021,02,25,15,16,139.10
2021,02,25,15,17,129.70
2021,02,25,15,18,121.00
2021,02,25,15,19,113.40
2021,02,25,15,20,110.40
2021,02,25,15,21,109.90
2021,02,25,15,22,112.10
2021,02,25,15,23,113.70
2021,02,25,15,24,117.30
2021,02,25,15,25,122.80
2021,02,25,15,26,125.40
2021,02,25,15,27,127.30
2021,02,25,15,28,128.90
2021,02,25,15,29,132.20
2021,02,25,15,30,138.80
2021,02,25,15,31,146.70
2021,02,25,15,32,152.60
2021,02,25,15,33,151.70
2021,02,25,15,34,143.40
2021,02,25,15,35,133.10
2021,02,25,15,36,125.20
2021,02,25,15,37,121.60
2021,02,25,15,38,121.00
2021,02,25,15,39,121.00
2021,02,25,15,40,120.80
2021,02,25,15,41,118.70
2021,02,25,15,42,112.90
2021,02,25,15,43,106.10
2021,02,25,15,44,101.20
2021,02,25,15,45,98.40
2021,02,25,15,46,98.00
2021,02,25,15,47,98.40
2021,02,25,15,48,100.60
2021,02,25,15,49,103.40
2021,02,25,15,50,105.00
2021,02,25,15,51,104.30
2021,02,25,15,52,102.40
2021,02,25,15,53,103.90
2021,02,25,15,54,105.90
2021,02,25,15,55,109.60
2021,02,25,15,56,111.90
2021,02,25,15,57,114.70
2021,02,25,15,58,118.70
2021,02,25,15,59,120.80
2021,02,25,16,00,119.60
2021,02,25,16,01,111.30
2021,02,25,16,02,100.50
2021,02,25,16,03,89.10
2021,02,25,16,04,80.10
2021,02,25,16,05,73.60
2021,02,25,16,06,70.40
2021,02,25,16,07,70.10
2021,02,25,16,08,72.00
2021,02,25,16,09,72.60
2021,02,25,16,10,74.90
2021,02,25,16,11,76.60
2021,02,25,16,12,78.40
2021,02,25,16,13,79.00
2021,02,25,16,14,79.00
2021,02,25,16,15,79.00
2021,02,25,16,16,79.00
2021,02,25,16,17,79.90
2021,02,25,16,18,81.00
2021,02,25,16,19,82.40
2021,02,25,16,20,83.00
2021,02,25,16,21,83.90
2021,02,25,16,22,83.80
2021,02,25,16,23,82.40
2021,02,25,16,24,81.00
2021,02,25,16,25,81.00
2021,02,25,16,26,81.00
2021,02,25,16,27,81.00
2021,02,25,16,28,80.70
2021,02,25,16,29,76.80
2021,02,25,16,30,75.40
2021,02,25,16,31,73.10
2021,02,25,16,32,70.90
2021,02,25,16,33,70.00
2021,02,25,16,34,69.20
2021,02,25,16,35,66.90
2021,02,25,16,36,64.60
2021,02,25,16,37,63.00
2021,02,25,16,38,62.60
2021,02,25,16,39,60.90
2021,02,25,16,40,58.60
2021,02,25,16,41,56.40
2021,02,25,16,42,56.00
2021,02,25,16,43,56.00
2021,02,25,16,44,55.00
2021,02,25,16,45,52.10
2021,02,25,16,46,49.90
2021,02,25,16,47,50.40
2021,02,25,16,48,52.60
2021,02,25,16,49,51.40
2021,02,25,16,50,55.40
2021,02,25,16,51,64.10
2021,02,25,16,52,71.10
2021,02,25,16,53,76.90
2021,02,25,16,54,77.60
2021,02,25,16,55,72.90
2021,02,25,16,56,62.10
2021,02,25,16,57,53.50
2021,02,25,16,58,50.40
2021,02,25,16,59,47.70
2021,02,25,17,00,44.90
2021,02,25,17,01,42.60
2021,02,25,17,02,42.00
2021,02,25,17,03,43.90
2021,02,25,17,04,43.60
2021,02,25,17,05,42.00
2021,02,25,17,06,41.10
2021,02,25,17,07,38.30
2021,02,25,17,08,35.60
2021,02,25,17,09,35.00
2021,02,25,17,10,35.00
2021,02,25,17,11,34.40
2021,02,25,17,12,31.40
2021,02,25,17,13,30.00
2021,02,25,17,14,30.00
2021,02,25,17,15,28.60
2021,02,25,17,16,28.00
2021,02,25,17,17,26.10
2021,02,25,17,18,24.60
2021,02,25,17,19,23.00
2021,02,25,17,20,22.10
2021,02,25,17,21,21.00
2021,02,25,17,22,21.00